Kezdőlap
METAR-TAF:

METAR-TAF

Repülőterek :

Offutt Air Force Base

Omaha, Nebraska, Amerikai Egyesült Államok

földrajzi szélesség: 41-07N, földrajzi hosszúság: 095-54W, magasság: 319 m

Jelenlegi meteorológiai megfigyelések

A jelentés 46 perccel ezelõtt készült, 06:56 UTC
Szélcsend
Hőmérséklet 23°C
Páratartalom 94%
Légköri nyomás 1015 hPa
Látótávolság: 16.1 km
Kevés felhő 3000 lábon
Szórványos felhőzet 12000 lábon
Borult 14000 lábon

METAR: KOFF 070656Z 00000KT 10SM FEW030 SCT120 OVC140 23/22 A2998 RMK AO2A SLP149 T02300216 PWINO PNO FZRANO TSNO VISNO RWY12 CHINO RWY12 $

Idő: 02:42 (07:42 UTC)


TAF: hiányzik

Meteorológiai megfigyelések és előrejelzések több, mint 4000 repülőtéren (METAR és TAF jelentéseket).

A térképen piros és sárga pontok jelzik az elérhető meteorológiai állomásokat.

Mozgassa az egeret a pont fölött, hogy megjelenjen az állomás neve.

Azután kattintson az időjárási megfigyelések és előrejelzések megtekintéséhez.

A térkép megváltoztatása: kattintson a fekete keresztel jelölt zöld gombra ráközelítéshez, a vonallal jelölt zöld gombra távolításhoz, vagy a zöld nyilakra a szomszédos térképek eléréséhez.


METAR-TAF: